Wind_Speed
3 6 10 13 16 17 17 18 18 18 16 13 11 10 9 9 8 7 6 4 3 3 2 2 3 3 4 5 6 7 8 9 10 11 12 12 13 14 15 16 17 18 19
2 5 8 12 14 15 16 17 18 17 15 12 11 10 8 8 7 6 5 4 3 2 2 2 2 2 4 5 6 7 8 9 10 11 12 13 14 15 16 17 18 19 20
4 5 6 9 12 15 17 17 17 16 14 12 11 11 9 7 7 5 4 3 3 2 1 1 2 3 4 5 7 8 9 10 11 11 12 13 14 15 16 17 18 19 21
2 5 6 7 11 15 15 15 15 14 13 12 11 10 9 8 7 6 4 3 2 1 0 1 2 3 5 6 8 9 10 10 11 11 12 13 14 15 15 17 18 19 21
2 3 5 6 10 12 13 13 13 13 12 12 11 10 9 8 7 6 4 3 2 1 0 1 2 3 5 7 8 9 10 11 12 12 13 14 15 16 16 17 18 19 20
2 3 4 6 9 10 11 12 12 11 11 11 11 10 9 8 8 6 5 3 2 1 1 2 3 4 6 8 9 10 11 12 12 13 14 15 16 17 17 18 19 20 21
2 4 5 6 8 10 10 11 11 11 11 11 10 10 9 9 8 6 5 4 3 2 2 3 5 6 8 9 10 11 12 13 14 15 15 16 17 18 19 20 21 22 23
2 3 5 6 8 9 10 10 10 10 11 11 10 10 9 9 8 6 5 4 4 4 5 6 7 8 9 10 11 12 13 14 16 16 17 18 19 20 21 22 22 23 24
3 4 5 6 8 9 9 10 10 10 10 10 10 10 9 8 8 7 7 6 6 7 8 9 10 11 11 12 13 14 15 17 18 18 19 20 21 22 23 23 23 24 25
4 4 5 7 8 8 9 10 10 10 10 10 10 10 10 9 9 9 9 9 9 10 10 11 12 13 13 14 15 16 17 19 20 21 22 22 23 24 24 24 25 25 26
6 6 7 7 8 9 9 10 10 11 11 11 11 11 11 11 11 11 12 12 12 13 13 13 14 15 16 17 18 19 20 21 22 23 23 24 25 25 25 26 26 26 27
8 8 8 9 9 10 10 10 11 12 12 12 13 13 13 13 13 14 14 14 15 15 16 16 17 18 19 19 20 21 22 23 24 25 25 26 27 27 27 28 28 28 28
10 9 10 10 11 11 12 12 13 13 14 14 14 15 15 16 16 17 17 18 18 19 19 20 20 21 21 22 23 24 25 25 26 26 27 28 28 29 30 30 30 30 30
11 11 11 12 12 12 13 14 14 15 16 16 17 17 18 19 19 20 20 21 21 22 22 23 23 24 24 25 25 26 26 27 27 28 29 29 30 31 31 31 32 32 31
13 13 13 13 14 14 15 16 16 17 18 19 20 20 21 21 22 22 23 23 24 24 25 25 26 26 27 27 27 28 28 29 29 30 30 31 32 32 33 33 33 33 33
15 15 15 15 16 17 17 18 19 19 20 21 22 22 23 23 24 25 25 26 26 27 27 28 28 28 28 29 29 29 30 31 31 31 32 33 33 34 34 35 35 35 35
16 16 16 17 17 18 19 20 21 22 22 23 24 25 25 26 26 27 28 28 29 29 29 30 30 30 30 30 31 31 32 32 33 33 34 34 35 35 36 36 36 36 36
18 18 18 18 19 20 21 22 23 24 25 26 26 27 28 28 29 29 29 30 30 30 30 30 31 31 32 32 32 33 33 34 34 35 36 36 37 37 37 37 38 38 38
20 20 20 21 22 22 23 25 25 26 27 28 29 30 30 30 30 31 31 32 31 31 31 32 32 32 33 33 34 34 35 35 36 37 38 38 38 39 39 39 39 39 39
22 22 23 24 25 26 27 27 27 28 30 31 32 32 32 32 32 33 33 33 32 32 33 33 33 34 35 35 36 37 37 37 38 38 39 40 40 41 41 41 40 40 40
24 24 25 26 27 28 28 28 28 30 31 32 33 33 33 33 34 34 34 34 34 34 35 35 35 36 37 38 39 39 40 40 40 40 42 42 42 43 43 42 42 42 42
25 26 27 28 28 29 29 30 30 31 32 33 33 33 34 35 35 34 35 35 36 37 37 37 37 38 39 40 41 42 42 42 42 42 44 44 44 44 44 44 44 44 43
26 27 28 29 30 30 30 32 32 33 33 34 34 34 35 35 36 36 37 38 39 39 39 40 41 42 42 43 43 44 44 44 44 45 46 46 46 46 46 45 45 45 45
28 29 29 29 30 31 31 32 33 34 35 35 35 35 36 37 37 38 38 39 40 41 42 43 44 45 45 45 45 45 45 46 46 47 48 48 48 48 47 47 47 47 46
31 31 31 32 32 33 33 34 35 36 36 36 36 36 37 38 39 39 40 41 42 43 44 45 46 46 46 46 47 48 48 49 50 50 50 50 50 50 49 49 49 48 48
31 32 33 33 33 34 34 35 36 36 37 37 38 38 39 40 41 41 42 43 44 45 46 47 48 48 48 49 50 51 51 52 53 53 53 52 52 51 51 51 50 50 49
Wind_Direction
218 209 202 197 196 201 204 201 200 201 205 208 212 212 213 211 214 222 217 212 221 240 262 287 297 301 304 312 315 314 313 310 306 303 300 295 292 288 284 280 278 273 270
180 184 190 191 196 199 196 197 198 202 205 207 212 213 212 205 209 201 197 199 211 229 249 267 293 308 312 321 324 321 319 316 313 308 303 299 294 291 286 283 280 277 273
186 181 180 188 195 190 189 192 196 199 202 206 213 215 211 204 199 197 193 189 193 198 231 273 301 322 330 331 330 327 323 322 320 315 310 306 302 297 292 287 283 280 277
185 176 179 184 186 187 190 196 200 201 201 203 204 201 197 191 189 183 180 185 185 184 216 321 330 338 337 335 334 333 330 328 325 321 317 313 309 304 299 294 289 284 280
181 173 170 174 180 187 192 195 195 194 195 196 195 194 193 193 190 181 180 184 189 180 37 356 342 338 339 339 337 335 331 329 326 323 319 316 313 309 304 299 295 290 285
149 169 177 179 179 182 183 183 187 190 194 196 196 193 190 187 183 182 188 195 202 220 295 323 328 329 331 330 331 330 329 327 325 323 321 319 315 312 308 303 298 293 289
180 181 181 179 180 182 181 183 186 189 190 192 190 188 184 183 183 187 196 206 214 240 280 300 310 317 322 322 322 323 323 323 323 322 321 320 318 315 311 307 302 297 292
194 185 183 180 178 179 179 181 187 187 186 186 186 186 187 188 191 198 212 224 237 259 279 292 301 307 313 316 317 319 321 321 320 319 318 317 317 315 312 309 304 300 296
213 201 195 190 185 185 187 189 191 191 191 191 192 195 196 200 208 219 230 240 254 268 280 290 297 303 307 310 312 315 316 317 318 316 316 316 315 315 312 310 307 303 299
223 216 208 203 198 198 199 199 201 201 202 203 204 207 211 217 225 235 243 253 264 272 279 286 293 298 302 306 308 310 312 314 315 314 314 314 314 314 312 310 308 305 301
233 226 222 216 212 211 212 212 212 212 214 216 218 221 225 230 239 246 252 258 265 272 278 284 290 295 298 301 304 305 307 309 311 313 313 312 312 313 312 310 308 306 303
242 235 230 224 220 220 222 222 222 223 224 227 229 232 235 240 247 252 257 262 267 273 278 283 287 291 294 297 299 301 304 306 308 309 310 311 310 311 311 310 308 307 304
250 242 234 229 228 229 230 232 233 234 234 236 238 241 244 248 252 257 262 266 270 274 278 282 285 289 292 295 297 299 303 304 306 307 308 309 309 310 310 310 309 307 305
250 244 240 238 238 239 240 240 241 242 243 244 246 248 252 255 258 262 265 268 271 275 279 282 285 288 291 294 296 298 301 303 304 305 307 308 308 309 309 309 309 308 306
254 251 249 246 244 244 246 246 246 246 247 249 251 253 257 260 262 265 267 270 274 277 279 282 285 288 290 293 295 297 299 301 303 304 305 306 306 307 308 308 308 308 307
253 252 252 253 250 248 249 250 250 251 252 254 256 258 261 263 265 267 269 272 275 278 281 283 285 287 289 292 294 295 298 300 301 302 303 304 305 306 307 307 307 307 307
253 253 254 256 256 254 254 256 257 257 258 260 262 264 265 266 267 269 272 274 277 279 282 283 285 287 289 291 293 295 297 298 300 302 303 304 304 305 306 307 306 306 306
253 254 257 260 261 260 260 260 262 263 264 265 266 267 268 269 270 272 274 276 278 280 283 285 287 289 290 292 293 295 297 297 298 300 302 302 303 304 305 305 305 305 305
252 255 258 261 262 262 263 263 263 265 266 267 268 268 269 270 272 273 275 276 278 281 283 285 287 289 290 291 293 295 296 297 297 299 300 301 301 302 303 304 304 303 303
254 258 259 260 261 261 263 265 266 266 267 268 268 269 270 271 272 274 276 277 279 281 284 285 287 289 290 291 293 294 296 296 296 297 298 299 299 300 302 303 302 302 302
255 258 260 260 261 263 264 265 267 268 268 268 270 269 269 272 274 276 276 278 280 283 285 286 288 289 290 291 293 293 295 296 296 297 298 298 298 299 300 301 302 301 301
257 260 261 261 263 264 263 264 267 269 271 272 273 273 272 273 275 278 279 280 283 285 287 288 288 290 292 292 292 293 293 294 295 296 297 297 298 298 299 301 301 301 299
256 260 262 265 265 265 266 267 267 269 271 271 272 273 274 275 276 278 280 282 284 285 286 288 289 290 291 292 292 293 293 294 294 295 296 297 297 297 298 300 300 300 299
259 261 264 265 266 266 268 270 273 273 273 272 272 274 275 277 279 280 282 283 285 286 287 288 289 291 292 292 292 292 292 293 294 296 297 297 296 296 297 298 299 299 298
261 263 264 267 269 270 270 272 274 273 272 273 275 276 278 279 280 280 281 283 285 286 287 289 289 291 291 291 291 292 293 293 294 295 295 295 295 295 296 296 297 296 296
261 264 268 270 272 272 272 273 273 274 275 276 277 278 279 280 281 282 283 284 285 286 287 288 289 290 291 291 291 292 292 292 293 294 294 294 294 294 294 295 295 295 294
Height
5846 5846 5847 5849 5852 5855 5858 5861 5864 5868 5870 5872 5874 5876 5877 5878 5879 5880 5880 5881 5882 5882 5883 5883 5883 5883 5883 5882 5882 5881 5881 5880 5879 5879 5878 5877 5876 5876 5876 5875 5875 5875 5874
5846 5846 5847 5849 5851 5854 5857 5860 5863 5866 5869 5871 5873 5875 5876 5877 5878 5879 5880 5880 5881 5882 5882 5882 5882 5881 5881 5881 5880 5879 5879 5878 5877 5876 5875 5874 5874 5873 5872 5871 5871 5870 5870
5847 5847 5848 5850 5852 5854 5857 5859 5862 5865 5868 5870 5872 5874 5875 5876 5877 5878 5879 5880 5880 5880 5881 5880 5880 5880 5880 5879 5878 5877 5877 5876 5875 5873 5872 5871 5870 5869 5868 5867 5866 5865 5865
5848 5847 5848 5849 5851 5854 5856 5859 5862 5864 5867 5869 5871 5873 5874 5875 5877 5878 5879 5879 5880 5880 5879 5879 5879 5878 5878 5877 5877 5876 5874 5873 5872 5871 5869 5868 5866 5865 5864 5863 5862 5860 5860
5849 5849 5849 5850 5852 5854 5856 5859 5861 5864 5866 5868 5870 5872 5873 5875 5876 5877 5878 5879 5879 5879 5878 5878 5878 5877 5877 5876 5875 5874 5872 5871 5870 5868 5866 5865 5863 5861 5860 5858 5857 5856 5854
5850 5850 5851 5852 5853 5855 5856 5859 5861 5864 5866 5868 5870 5871 5873 5875 5876 5877 5878 5878 5878 5878 5878 5877 5877 5876 5875 5874 5873 5872 5870 5869 5867 5865 5863 5861 5859 5857 5855 5854 5852 5850 5849
5851 5851 5851 5852 5854 5856 5857 5860 5861 5863 5865 5867 5869 5871 5872 5874 5875 5876 5877 5877 5877 5877 5877 5876 5876 5875 5874 5872 5871 5870 5868 5866 5864 5862 5860 5858 5856 5853 5851 5849 5847 5844 5843
5851 5851 5852 5852 5854 5856 5858 5860 5862 5863 5865 5867 5868 5870 5871 5873 5874 5875 5875 5875 5875 5875 5875 5875 5874 5873 5871 5870 5869 5867 5865 5863 5861 5859 5857 5854 5852 5849 5846 5844 5841 5839 5836
5852 5852 5852 5853 5855 5856 5858 5860 5862 5863 5865 5866 5868 5869 5870 5871 5872 5873 5874 5874 5874 5873 5873 5872 5871 5870 5869 5867 5866 5864 5862 5860 5857 5855 5853 5850 5847 5844 5841 5838 5836 5833 5830
5851 5852 5852 5853 5855 5856 5858 5860 5861 5863 5864 5865 5867 5868 5869 5870 5871 5871 5871 5871 5871 5871 5870 5869 5868 5867 5865 5864 5862 5860 5858 5856 5853 5850 5848 5845 5842 5839 5836 5833 5830 5827 5824
5851 5851 5852 5853 5854 5856 5857 5859 5860 5861 5863 5864 5865 5866 5867 5868 5868 5869 5869 5869 5868 5868 5867 5866 5864 5863 5861 5860 5858 5856 5853 5851 5848 5845 5843 5840 5837 5833 5830 5827 5824 5820 5817
5849 5850 5851 5852 5853 5854 5856 5857 5858 5860 5861 5862 5863 5864 5864 5865 5865 5865 5865 5865 5865 5864 5863 5861 5860 5859 5857 5855 5853 5851 5848 5846 5843 5840 5837 5834 5831 5827 5824 5820 5817 5814 5810
5847 5848 5849 5850 5851 5852 5854 5855 5856 5857 5858 5859 5860 5861 5861 5861 5862 5862 5862 5861 5860 5859 5858 5857 5855 5854 5852 5850 5847 5845 5842 5840 5837 5834 5830 5827 5824 5821 5817 5813 5810 5806 5803
5844 5845 5846 5847 5848 5850 5851 5852 5853 5854 5855 5856 5856 5857 5857 5857 5857 5857 5857 5856 5855 5854 5853 5851 5849 5848 5846 5843 5841 5838 5836 5833 5830 5827 5824 5820 5817 5813 5810 5806 5802 5799 5795
5841 5842 5843 5844 5845 5846 5847 5848 5849 5850 5851 5851 5852 5852 5852 5852 5852 5852 5851 5850 5849 5848 5846 5845 5843 5841 5839 5837 5834 5831 5829 5826 5823 5819 5816 5813 5809 5806 5802 5798 5794 5790 5787
5837 5838 5839 5840 5841 5842 5843 5844 5845 5845 5846 5846 5847 5847 5847 5847 5846 5846 5845 5844 5843 5841 5840 5838 5836 5834 5832 5829 5827 5824 5821 5818 5815 5812 5808 5805 5801 5798 5794 5790 5786 5782 5778
5832 5833 5834 5835 5836 5837 5838 5839 5839 5840 5840 5841 5841 5841 5841 5841 5840 5839 5838 5837 5836 5834 5833 5831 5829 5826 5824 5822 5819 5816 5813 5810 5807 5803 5800 5796 5793 5789 5785 5781 5777 5773 5769
5828 5828 5829 5830 5831 5832 5832 5833 5834 5834 5835 5835 5835 5835 5834 5834 5833 5832 5831 5830 5828 5826 5825 5823 5821 5818 5816 5813 5810 5807 5804 5801 5798 5794 5791 5787 5783 5779 5776 5771 5767 5763 5759
5823 5823 5824 5825 5825 5826 5826 5827 5827 5828 5828 5828 5828 5827 5827 5826 5825 5824 5823 5821 5820 5818 5816 5814 5812 5810 5807 5804 5801 5798 5795 5791 5788 5785 5781 5777 5774 5770 5766 5762 5757 5753 5749
5817 5818 5818 5819 5820 5820 5820 5820 5820 5820 5820 5820 5819 5819 5818 5817 5816 5815 5814 5812 5811 5809 5807 5805 5803 5800 5798 5795 5791 5788 5785 5782 5778 5775 5771 5767 5764 5759 5755 5751 5747 5743 5738
5811 5811 5812 5812 5813 5813 5813 5813 5813 5813 5812 5812 5811 5810 5809 5808 5807 5805 5804 5803 5801 5800 5797 5795 5793 5790 5787 5784 5781 5777 5774 5770 5767 5763 5760 5756 5752 5748 5743 5739 5735 5731 5727
5804 5805 5804 5804 5805 5805 5805 5805 5805 5804 5804 5803 5802 5801 5800 5799 5798 5796 5795 5793 5791 5789 5787 5785 5782 5779 5776 5773 5770 5766 5763 5759 5755 5752 5748 5744 5740 5736 5731 5727 5723 5719 5715
5797 5797 5797 5798 5797 5797 5797 5797 5796 5796 5795 5794 5793 5792 5791 5790 5788 5787 5785 5783 5781 5778 5776 5773 5771 5768 5765 5761 5758 5754 5750 5746 5743 5739 5736 5732 5727 5723 5719 5715 5711 5706 5702
5790 5790 5790 5790 5789 5789 5788 5788 5788 5787 5786 5785 5784 5782 5781 5780 5778 5776 5774 5772 5769 5767 5764 5761 5759 5755 5752 5748 5745 5741 5737 5733 5730 5726 5722 5718 5713 5709 5705 5701 5697 5693 5689
5782 5781 5781 5781 5781 5780 5779 5779 5778 5776 5776 5775 5773 5772 5771 5769 5767 5765 5763 5761 5758 5755 5752 5749 5746 5742 5739 5735 5731 5727 5723 5720 5716 5712 5708 5704 5700 5696 5692 5688 5684 5680 5676
5773 5773 5772 5772 5771 5771 5770 5769 5768 5767 5766 5764 5763 5761 5759 5757 5755 5753 5751 5748 5746 5743 5739 5736 5732 5729 5725 5721 5717 5713 5709 5705 5700 5696 5693 5689 5685 5681 5677 5673 5669 5665 5662